Weather History for Lakeville, MN

Change the Weather History Date:

Friday, January 13, 2012

  Actual Average Record
Temperature  
Mean Temperature 6 °F -  
Max Temperature 10 °F 21 °F 46 °F (1987)
Min Temperature 3 °F 4 °F -24 °F (1965)
Degree Days  
Heating Degree Days 58    
Moisture  
Dew Point 5 °F    
Average Humidity 83    
Maximum Humidity 92    
Minimum Humidity 73    
Precipitation  
Precipitation 0.00 in - - ()
Sea Level Pressure  
Sea Level Pressure 29.94 in    
Wind  
Wind Speed 9 mph (WNW)    
Max Wind Speed 14 mph    
Max Gust Speed 17 mph    
Visibility 8 miles    
Events Snow    
Averages and records for this station are not official NWS values.
T = Trace of Precipitation, MM = Missing Value Source: NWS Daily Summary

Daily Weather History Graph

Daily Weather History Graph

Search for Another Location

Airport:

Trip Planner

Search our weather history database for the weather conditions in past years. The results will help you decide how hot, cold, wet, or windy it might be!

Date:

Astronomy

Jan. 13, 2012 Rise Set
Actual Time 7:47 AM CST 4:55 PM CST
Civil Twilight 7:14 AM CST 5:28 PM CST
Nautical Twilight 6:38 AM CST 6:04 PM CST
Astronomical Twilight 6:03 AM CST 6:39 PM CST
Moon 10:24 PM CST (1/13) 9:48 AM CST (1/13)
Length of Visible Light 10h 13m
Length of Day
9h 08m
Waning Gibbous, 78% of the Moon is Illuminated
Jan 13
Waning Gibbous
Jan 16
Last Quarter
Jan 23
New
Jan 30
First Quarter
Feb 7
Full

Hourly Weather History & Observations

Time (CST) Temp. Windchill Dew Point Humidity Pressure Visibility Wind Dir Wind Speed Gust Speed Precip Events Conditions
12:07 AM 10.4 °F -5.4 °F 6.8 °F 85% 29.85 in 5.0 mi NW 13.8 mph - N/A Snow Light Snow
12:27 AM 10.4 °F -3.3 °F 6.8 °F 85% 29.86 in 4.0 mi NNW 10.4 mph - N/A Snow Light Snow
12:47 AM 10.4 °F -4.1 °F 6.8 °F 85% 29.85 in 4.0 mi NNW 11.5 mph - N/A Snow Light Snow
1:07 AM 10.4 °F -3.3 °F 6.8 °F 85% 29.86 in 4.0 mi NW 10.4 mph - N/A Snow Light Snow
1:27 AM 10.4 °F -4.1 °F 6.8 °F 85% 29.86 in 5.0 mi NW 11.5 mph - N/A Snow Light Snow
1:47 AM 10.4 °F -3.3 °F 6.8 °F 85% 29.87 in 5.0 mi NNW 10.4 mph - N/A Snow Light Snow
2:07 AM 10.4 °F -4.8 °F 6.8 °F 85% 29.87 in 7.0 mi NW 12.7 mph 17.3 mph N/A Snow Light Snow
2:27 AM 10.4 °F -2.4 °F 6.8 °F 85% 29.88 in 5.0 mi NW 9.2 mph - N/A Snow Light Snow
2:47 AM 10.4 °F -3.3 °F 6.8 °F 85% 29.88 in 7.0 mi NW 10.4 mph - N/A Snow Light Snow
3:08 AM 10.4 °F -4.1 °F 6.8 °F 85% 29.89 in 7.0 mi NW 11.5 mph - N/A Snow Light Snow
3:27 AM 10.4 °F -2.4 °F 6.8 °F 85% 29.89 in 7.0 mi NW 9.2 mph - N/A Snow Light Snow
3:47 AM 10.4 °F -4.1 °F 6.8 °F 85% 29.89 in 10.0 mi NW 11.5 mph - N/A Snow Light Snow
4:07 AM 10.4 °F -3.3 °F 6.8 °F 85% 29.89 in 10.0 mi NW 10.4 mph - N/A Snow Light Snow
4:27 AM 10.4 °F -2.4 °F 6.8 °F 85% 29.90 in 7.0 mi NW 9.2 mph - N/A Snow Light Snow
4:47 AM 10.4 °F -2.4 °F 6.8 °F 85% 29.90 in 7.0 mi NW 9.2 mph - N/A Snow Light Snow
5:07 AM 10.4 °F -1.5 °F 6.8 °F 85% 29.91 in 7.0 mi NW 8.1 mph - N/A Snow Light Snow
5:27 AM 10.4 °F -4.1 °F 6.8 °F 85% 29.92 in 10.0 mi WNW 11.5 mph - N/A Snow Light Snow
6:07 AM 10.4 °F -4.1 °F 6.8 °F 85% 29.93 in 10.0 mi NW 11.5 mph - N/A   Overcast
6:28 AM 10.4 °F -2.4 °F 6.8 °F 85% 29.94 in 10.0 mi NW 9.2 mph - N/A Snow Light Snow
6:47 AM 10.4 °F -2.4 °F 6.8 °F 85% 29.94 in 10.0 mi NW 9.2 mph - N/A Snow Light Snow
7:07 AM 10.4 °F -1.5 °F 6.8 °F 85% 29.95 in 10.0 mi NW 8.1 mph - N/A Snow Light Snow
7:26 AM 10.4 °F -3.3 °F 6.8 °F 85% 29.95 in 10.0 mi NW 10.4 mph - N/A Snow Light Snow
8:07 AM 10.4 °F -1.5 °F 6.8 °F 85% 29.95 in 2.5 mi NW 8.1 mph - N/A Snow Light Snow
8:27 AM 10.4 °F -1.5 °F 6.8 °F 85% 29.96 in 4.0 mi NW 8.1 mph - N/A Snow Light Snow
8:47 AM 10.4 °F -3.3 °F 6.8 °F 85% 29.96 in 5.0 mi WNW 10.4 mph - N/A Snow Light Snow
9:07 AM 8.6 °F -4.7 °F 6.8 °F 92% 29.97 in 7.0 mi WNW 9.2 mph - N/A Snow Light Snow
9:27 AM 10.4 °F -1.5 °F 6.8 °F 85% 29.97 in 5.0 mi WNW 8.1 mph - N/A Snow Light Snow
9:47 AM 10.4 °F -1.5 °F 6.8 °F 85% 29.97 in 7.0 mi NW 8.1 mph - N/A Snow Light Snow
10:07 AM 10.4 °F -0.4 °F 5.0 °F 79% 29.97 in 7.0 mi WNW 6.9 mph - N/A   Overcast
10:26 AM 10.4 °F -0.4 °F 5.0 °F 79% 29.97 in 7.0 mi WNW 6.9 mph - N/A Snow Light Snow
10:47 AM 10.4 °F -0.4 °F 5.0 °F 79% 29.97 in 3.0 mi NW 6.9 mph - N/A Snow Light Snow
11:07 AM 10.4 °F 2.2 °F 5.0 °F 79% 29.97 in 5.0 mi NNW 4.6 mph - N/A Snow Light Snow
11:27 AM 10.4 °F - 5.0 °F 79% 29.96 in 7.0 mi Calm Calm - N/A Snow Light Snow
11:47 AM 10.4 °F 2.2 °F 5.0 °F 79% 29.96 in 7.0 mi NW 4.6 mph - N/A Snow Light Snow
12:07 PM 10.4 °F 0.8 °F 5.0 °F 79% 29.96 in 7.0 mi NNW 5.8 mph - N/A Snow Light Snow
12:27 PM 10.4 °F 2.2 °F 6.8 °F 85% 29.96 in 5.0 mi WNW 4.6 mph - N/A Snow Light Snow
12:47 PM 10.4 °F -0.4 °F 6.8 °F 85% 29.95 in 7.0 mi West 6.9 mph - N/A Snow Light Snow
1:07 PM 10.4 °F -1.5 °F 5.0 °F 79% 29.95 in 7.0 mi West 8.1 mph - N/A Snow Light Snow
1:27 PM 10.4 °F -0.4 °F 6.8 °F 85% 29.95 in 7.0 mi WNW 6.9 mph - N/A Snow Light Snow
1:47 PM 10.4 °F -1.5 °F 5.0 °F 79% 29.95 in 10.0 mi West 8.1 mph - N/A Snow Light Snow
2:07 PM 10.4 °F -0.4 °F 5.0 °F 79% 29.95 in 10.0 mi WNW 6.9 mph - N/A   Overcast
2:28 PM 10.4 °F 2.2 °F 3.2 °F 73% 29.95 in 10.0 mi WNW 4.6 mph - N/A   Overcast
2:47 PM 10.4 °F 0.8 °F 5.0 °F 79% 29.96 in 10.0 mi WNW 5.8 mph - N/A Snow Light Snow
3:07 PM 10.4 °F -0.4 °F 3.2 °F 73% 29.96 in 10.0 mi West 6.9 mph - N/A   Overcast
3:27 PM 10.4 °F 4.0 °F 5.0 °F 79% 29.96 in 7.0 mi West 3.5 mph - N/A Snow Light Snow
3:47 PM 10.4 °F -0.4 °F 3.2 °F 73% 29.97 in 10.0 mi WSW 6.9 mph - N/A Snow Light Snow
4:06 PM 10.4 °F -0.4 °F 3.2 °F 73% 29.98 in 10.0 mi West 6.9 mph - N/A   Overcast
4:27 PM 8.6 °F 0.1 °F 3.2 °F 79% 29.98 in 10.0 mi SW 4.6 mph - N/A   Overcast
4:47 PM 8.6 °F 0.1 °F 3.2 °F 79% 29.98 in 7.0 mi WSW 4.6 mph - N/A Snow Light Snow
5:07 PM 8.6 °F -2.6 °F 3.2 °F 79% 29.98 in 7.0 mi West 6.9 mph - N/A Snow Light Snow
5:27 PM 8.6 °F 2.0 °F 3.2 °F 79% 29.99 in 7.0 mi WSW 3.5 mph - N/A Snow Light Snow
5:47 PM 8.6 °F 0.1 °F 3.2 °F 79% 29.99 in 10.0 mi WSW 4.6 mph - N/A   Overcast
6:06 PM 8.6 °F 2.0 °F 3.2 °F 79% 29.99 in 10.0 mi West 3.5 mph - N/A   Overcast
6:27 PM 6.8 °F - 1.4 °F 79% 29.99 in 10.0 mi Calm Calm - N/A   Overcast
6:47 PM 5.0 °F - 1.4 °F 85% 29.99 in 10.0 mi Calm Calm - N/A   Scattered Clouds
7:07 PM 5.0 °F - 1.4 °F 85% 29.99 in 10.0 mi Calm Calm - N/A   Clear
7:27 PM 5.0 °F - 1.4 °F 85% 29.99 in 10.0 mi Calm Calm - N/A   Clear
7:46 PM 3.2 °F - 1.4 °F 92% 29.98 in 10.0 mi Calm Calm - N/A   Unknown
8:07 PM 3.2 °F - 1.4 °F 92% 29.99 in 10.0 mi Calm Calm - N/A   Unknown
8:47 PM 3.2 °F - 1.4 °F 92% 29.99 in 10.0 mi Calm Calm - N/A   Clear
9:07 PM 1.4 °F - -0.4 °F 92% 29.99 in 10.0 mi Calm Calm - N/A   Clear
9:27 PM 1.4 °F - -2.2 °F 85% 29.98 in 10.0 mi Calm Calm - N/A   Clear
9:47 PM 1.4 °F - -2.2 °F 85% 29.99 in 10.0 mi Calm Calm - N/A   Clear
10:27 PM 1.4 °F - -0.4 °F 92% 29.99 in 10.0 mi Calm Calm - N/A   Clear
10:47 PM 1.4 °F - -0.4 °F 92% 29.99 in 10.0 mi Calm Calm - N/A   Unknown
11:27 PM 1.4 °F - -0.4 °F 92% 29.99 in 10.0 mi Calm Calm - N/A   Clear
11:47 PM 1.4 °F - -2.2 °F 85% 29.98 in 4.0 mi Calm Calm - N/A   Clear